Showing default

YAOGAN-32 B, 43643

Orbit data source: Space-Track

YAOGAN-32 B, 43643 is a payload satellite owned by PLA SSF (CN) in SSO that was launched on Tue, 09 Oct 2018 UTC via a CHANG ZHENG 2C/YZ-1S launch vehicle from the Jiuquan Satellite Launch Center, China (JSC). Payload-class satellites include a variety of spacecraft equipped with specific instruments for various scientific and technological missions. These include communications satellites like Starlink; space stations such as the ISS; scientific satellites like the Hubble; Earth observation satellites from companies like Planet Labs, Umbra, and HawkEye 360; GPS; miniature CubeSats for education and research; and military/defense satellites.

Loading next visibility...
Identifier
43643, 2018-077B
Orbit
SSO
Country
Flag of CNCN / PRC
Related business
Manufacturer
SECM?
Mission
Operational Defense Sigint
Bus & Motor
Unknown
Mass
~500 kg wet, ~500 kg dry
Launch date (UTC)
2018-10-09 (7 years ago)
Launch vehicle
CHANG ZHENG 2C/YZ-1S
Launch site
Jiuquan Satellite Launch Center, China (JSC)
Object type
Payload
Rocket body
Debris
Shape & HBR
Box + 2 Pan, 0.5 m
Radar Cross Section
0.446 m², Large (>1 m²)

Expand to show TLE details & history
Last TLE update: 10 hours ago

TLE from 10 hours ago
0 YAOGAN-32 B
1 43643U 18077B   25352.98299902  .00000601  00000-0  12604-3 0  9991
2 43643  97.9233  19.5349 0001369  79.2061 280.9296 14.62959067383481
Epoch: 2025-12-18T23:35Z
TLE epoch observation values (Epoch: 2025-12-18T23:35:31.115Z)
Latitude
0.00003°
Longitude
-62.17544°
Altitude
686.45 km
Speed
7.513 km/s
True Right ascension
01h 18m 08s
True Declination
0° 00' 00"
Sunlit
Object was in daylight at epoch
Visualization orbit readout
Latitude
Unknown
Longitude
Unknown
Altitude
Unknown
Speed
Unknown
Apparent Right ascension
Unknown
Apparent Declination
Unknown
Sunlit
N/A
Visualization observer readout
Local Sidereal Time
08:26:14
Azimuth
Unknown
Elevation
Unknown
Doppler factor
Unknown
Orbital elements
Apogee altitude
681.667 km
Perigee altitude
679.734 km
Semi-major axis
7,058.837 km
Eccentricity
0.00014
Inclination
97.9233°
RAAN
19.5349°
Arg. of periapsis
79.2061°
True anomaly
280.9142°
Mean anomaly
280.9296°
Eccentric anomaly
280.9219°
Mean motion
3.65968 °/min
Orbital period
98.37 mins
BSTAR
0.00012604
Loading maneuver chart data...
Computing Atmospheric mass density...
Loading historical data...
Loading historical data...
Loading historical data...
Loading historical data...
Loading historical data...
Loading historical data...
Loading historical data...
Other satellites on launch #77 in the year 2018 (2018-10-09 UTC)

Documentation

Showing up to 5 results
|